User: anonymous   Login
Location: Chena
(64.8152°N, 147.9227°W)
Time: 16:37:38
(UTC+00:00)
Language:

Vanguard 2 Rocket - Orbit

View from above orbital plane
View from above orbital plane
View from above satellite
View from above satellite

Ground track
Ground track

The orbit data is extracted from the following two-line orbital elements,

1 00012U 59001B   21057.80078446  .00000109  00000-0  56060-4 0  9991
2 00012  32.9031 181.0239 1666151 333.1917  19.1237 11.44395933309120
Epoch (UTC): 26 February 2021 19:13:07
Eccentricity: 0.1666151
inclination: 32.9031°
perigee height: 554 km
apogee height: 3326 km
right ascension of ascending node: 181.0239°
argument of perigee: 333.1917°
revolutions per day: 11.44395933
mean anomaly at epoch: 19.1237°
orbit number at epoch: 30912

The dashed part of the orbit path shows where the satellite is in the earth's shadow,  

DLR